Location: Ferma
(41.9500°N, 44.5167°E)
Time: 18:49:24
(UTC+00:00)

SKYMED 3 - Pass Details

Date: 24 October 2021
Orbit: 621 x 623 km, 97.9° (Epoch: 02 December)

Event Time Altitude Azimuth Distance (km) Brightness Sun altitude
Rises 15:00:26 0° 14° (NNE) 2,913 7.8 -10.6°
Reaches altitude 10° 15:02:39 10° 17° (NNE) 2,002 6.9 -11.0°
Maximum altitude 15:06:59 71° 102° (ESE) 660 4.5 -11.8°
Drops below altitude 10° 15:11:18 10° 187° (S) 1,985 7.3 -12.6°
Sets 15:13:29 0° 189° (S) 2,886 8.2 -13.0°
